SKU011 ENZV-EFHK

Flight info

Callsign SKU011
Flight time 1h 31m
Altitude 37000
Route UPLEV DCT IBVUT Y363 LAKUT
Aircraft A320/M-SDE3FGHIRWY/LB1

Departure

Time 2026-05-08 22:38
Airport Stavanger Airport, Sola (ENZV)

Arrival

Time 2026-05-09 00:09
Airport Helsinki Vantaa Airport (EFHK)
Time Latitude Longitude Altitude Speed Heading
2026-05-08 22:22 58.88201 5.63094 29 ft 0 kts 285°
2026-05-08 22:27 58.88200 5.63101 29 ft 2 kts 284°
2026-05-08 22:28 58.88195 5.63132 29 ft 2 kts 285°
2026-05-08 22:28 58.88191 5.63163 29 ft 2 kts 284°
2026-05-08 22:28 58.88187 5.63194 29 ft 2 kts 286°
2026-05-08 22:28 58.88182 5.63224 29 ft 2 kts 287°
2026-05-08 22:29 58.88177 5.63255 29 ft 2 kts 292°
2026-05-08 22:29 58.88170 5.63284 29 ft 2 kts 333°
2026-05-08 22:29 58.88159 5.63288 29 ft 1 kts 14°
2026-05-08 22:30 58.88196 5.63302 29 ft 13 kts
2026-05-08 22:31 58.88266 5.63326 28 ft 10 kts 52°
2026-05-08 22:31 58.88308 5.63418 28 ft 9 kts 19°
2026-05-08 22:31 58.88373 5.63428 27 ft 10 kts
2026-05-08 22:31 58.88441 5.63426 27 ft 9 kts 359°
2026-05-08 22:32 58.88505 5.63424 30 ft 9 kts 359°
2026-05-08 22:32 58.88555 5.63422 28 ft 8 kts 359°
2026-05-08 22:32 58.88588 5.63421 27 ft 8 kts 359°
2026-05-08 22:32 58.88625 5.63419 25 ft 8 kts 359°
2026-05-08 22:33 58.88725 5.63415 24 ft 23 kts 358°
2026-05-08 22:33 58.88896 5.63413 23 ft 24 kts 359°
2026-05-08 22:33 58.89055 5.63409 21 ft 22 kts 359°
2026-05-08 22:33 58.89203 5.63406 20 ft 16 kts 359°
2026-05-08 22:34 58.89271 5.63403 19 ft 9 kts 359°
2026-05-08 22:34 58.89330 5.63425 20 ft 8 kts 38°
2026-05-08 22:34 58.89343 5.63509 19 ft 0 kts 89°
2026-05-08 22:35 58.89344 5.63548 19 ft 9 kts 86°
2026-05-08 22:36 58.89345 5.63673 19 ft 8 kts 103°
2026-05-08 22:36 58.89310 5.63730 20 ft 7 kts 168°
2026-05-08 22:36 58.89264 5.63734 21 ft 6 kts 179°
2026-05-08 22:36 58.89262 5.63734 21 ft 0 kts 179°
2026-05-08 22:37 58.89097 5.63744 20 ft 61 kts 179°
2026-05-08 22:37 58.88449 5.63763 30 ft 122 kts 179°
2026-05-08 22:37 58.87432 5.63813 83 ft 165 kts 177°
2026-05-08 22:37 58.86249 5.63905 627 ft 176 kts 178°
2026-05-08 22:38 58.85035 5.63951 1496 ft 172 kts 179°
2026-05-08 22:38 58.83827 5.63969 2158 ft 179 kts 180°
2026-05-08 22:38 58.82507 5.63985 2480 ft 199 kts 180°
2026-05-08 22:38 58.81037 5.64008 2838 ft 224 kts 180°
2026-05-08 22:39 58.79412 5.64038 3450 ft 239 kts 180°
2026-05-08 22:39 58.77736 5.64081 4357 ft 242 kts 180°
2026-05-08 22:39 58.76045 5.64130 5272 ft 245 kts 180°
2026-05-08 22:39 58.74321 5.64180 6141 ft 250 kts 180°
2026-05-08 22:40 58.72562 5.64258 6960 ft 255 kts 176°
2026-05-08 22:40 58.70867 5.65238 7723 ft 264 kts 152°
2026-05-08 22:40 58.69491 5.67701 8516 ft 276 kts 125°
2026-05-08 22:40 58.68841 5.71164 9299 ft 287 kts 98°
2026-05-08 22:41 58.68916 5.75046 10093 ft 295 kts 79°
2026-05-08 22:41 58.69725 5.78696 10789 ft 303 kts 54°
2026-05-08 22:41 58.71290 5.81470 11329 ft 316 kts 28°
2026-05-08 22:41 58.73446 5.82649 11558 ft 335 kts
2026-05-08 22:42 58.75845 5.82705 11890 ft 352 kts 358°
2026-05-08 22:42 58.78311 5.82664 12499 ft 358 kts 357°
2026-05-08 22:42 58.80824 5.82602 13172 ft 363 kts 357°
2026-05-08 22:42 58.83362 5.82913 13808 ft 371 kts
2026-05-08 22:43 58.85844 5.84429 14407 ft 378 kts 24°
2026-05-08 22:43 58.88088 5.87123 14991 ft 382 kts 39°
2026-05-08 22:43 58.89939 5.90811 15605 ft 385 kts 54°
2026-05-08 22:43 58.91324 5.95281 16215 ft 388 kts 64°
2026-05-08 22:44 58.92576 5.99915 16805 ft 391 kts 64°
2026-05-08 22:44 58.93845 6.04616 17401 ft 395 kts 64°
2026-05-08 22:44 58.95123 6.09341 17993 ft 399 kts 64°
2026-05-08 22:44 58.96419 6.14130 18565 ft 403 kts 63°
2026-05-08 22:45 58.97726 6.18968 19065 ft 406 kts 63°
2026-05-08 22:45 58.99020 6.23850 19566 ft 409 kts 67°
2026-05-08 22:45 59.00033 6.29010 20051 ft 411 kts 72°
2026-05-08 22:45 59.00971 6.34281 20540 ft 414 kts 73°
2026-05-08 22:46 59.01913 6.39595 21018 ft 418 kts 73°
2026-05-08 22:46 59.02861 6.44953 21494 ft 421 kts 73°
2026-05-08 22:46 59.03812 6.50335 21972 ft 424 kts 72°
2026-05-08 22:46 59.04773 6.55777 22454 ft 427 kts 72°
2026-05-08 22:47 59.05740 6.61265 22934 ft 430 kts 72°
2026-05-08 22:47 59.06712 6.66795 23367 ft 433 kts 73°
2026-05-08 22:47 59.07688 6.72369 23820 ft 437 kts 73°
2026-05-08 22:47 59.08667 6.77973 24204 ft 440 kts 73°
2026-05-08 22:48 59.09645 6.83612 24582 ft 442 kts 73°
2026-05-08 22:48 59.10593 6.89328 24945 ft 445 kts 74°
2026-05-08 22:48 59.11491 6.95107 25305 ft 447 kts 75°
2026-05-08 22:48 59.12345 7.00939 25659 ft 449 kts 75°
2026-05-08 22:49 59.13176 7.06803 26015 ft 452 kts 76°
2026-05-08 22:49 59.14846 7.18670 26713 ft 456 kts 75°
2026-05-08 22:49 59.15691 7.24640 27058 ft 459 kts 75°
2026-05-08 22:50 59.16548 7.30651 27397 ft 461 kts 75°
2026-05-08 22:50 59.17412 7.36677 27757 ft 463 kts 75°
2026-05-08 22:50 59.18270 7.42674 28079 ft 465 kts 75°
2026-05-08 22:50 59.19136 7.48763 28398 ft 468 kts 75°
2026-05-08 22:51 59.20019 7.54987 28735 ft 470 kts 75°
2026-05-08 22:51 59.20875 7.61060 29054 ft 472 kts 75°
2026-05-08 22:51 59.21743 7.67245 29369 ft 474 kts 75°
2026-05-08 22:51 59.22614 7.73472 29666 ft 476 kts 75°
2026-05-08 22:52 59.23481 7.79709 29965 ft 478 kts 75°
2026-05-08 22:52 59.24351 7.85993 30262 ft 480 kts 75°
2026-05-08 22:52 59.25223 7.92290 30513 ft 482 kts 75°
2026-05-08 22:52 59.26100 7.98625 30761 ft 483 kts 75°
2026-05-08 22:53 59.26975 8.04962 31009 ft 484 kts 74°
2026-05-08 22:53 59.27845 8.11325 31361 ft 483 kts 75°
2026-05-08 22:53 59.28706 8.17686 31719 ft 482 kts 75°
2026-05-08 22:53 59.29559 8.24027 32055 ft 482 kts 75°
2026-05-08 22:54 59.30407 8.30350 32384 ft 481 kts 74°
2026-05-08 22:54 59.31254 8.36696 32706 ft 481 kts 74°
2026-05-08 22:54 59.32102 8.43037 33026 ft 480 kts 74°
2026-05-08 22:54 59.32945 8.49352 33351 ft 480 kts 74°
2026-05-08 22:55 59.33782 8.55665 33678 ft 479 kts 74°
2026-05-08 22:55 59.34612 8.61978 33994 ft 479 kts 74°
2026-05-08 22:55 59.35428 8.68228 34309 ft 478 kts 74°
2026-05-08 22:55 59.36254 8.74542 34585 ft 478 kts 74°
2026-05-08 22:56 59.37076 8.80844 34853 ft 477 kts 74°
2026-05-08 22:56 59.37897 8.87142 35122 ft 477 kts 74°
2026-05-08 22:56 59.38717 8.93457 35377 ft 476 kts 75°
2026-05-08 22:56 59.39530 8.99747 35634 ft 476 kts 75°
2026-05-08 22:57 59.40337 9.06032 35884 ft 475 kts 75°
2026-05-08 22:57 59.41140 9.12336 36122 ft 475 kts 75°
2026-05-08 22:57 59.41939 9.18621 36261 ft 475 kts 75°
2026-05-08 22:57 59.42732 9.24920 36293 ft 474 kts 75°
2026-05-08 22:58 59.44299 9.37468 36297 ft 473 kts 75°
2026-05-08 22:58 59.45876 9.50035 36290 ft 472 kts 76°
2026-05-08 22:59 59.47428 9.62570 36296 ft 472 kts 76°
2026-05-08 22:59 59.48962 9.75102 36302 ft 471 kts 76°
2026-05-08 23:00 59.50486 9.87653 36305 ft 471 kts 76°
2026-05-08 23:00 59.51989 10.00166 36299 ft 470 kts 76°
2026-05-08 23:01 59.53487 10.12703 36299 ft 470 kts 76°
2026-05-08 23:01 59.54973 10.25225 36301 ft 469 kts 77°
2026-05-08 23:02 59.56447 10.37776 36300 ft 469 kts 77°
2026-05-08 23:02 59.57899 10.50320 36298 ft 469 kts 77°
2026-05-08 23:03 59.59339 10.62885 36297 ft 469 kts 77°
2026-05-08 23:03 59.60769 10.75377 36297 ft 469 kts 78°
2026-05-08 23:04 59.62196 10.87943 36299 ft 469 kts 78°
2026-05-08 23:04 59.63604 11.00527 36302 ft 469 kts 78°
2026-05-08 23:05 59.64998 11.13131 36298 ft 469 kts 78°
2026-05-08 23:05 59.66381 11.25718 36302 ft 468 kts 78°
2026-05-08 23:06 59.67526 11.36250 36298 ft 468 kts 79°
2026-05-08 23:06 59.68875 11.48771 36300 ft 468 kts 79°
2026-05-08 23:07 59.70217 11.61355 36294 ft 467 kts 79°
2026-05-08 23:07 59.71548 11.73972 36296 ft 467 kts 79°
2026-05-08 23:08 59.72872 11.86563 36289 ft 467 kts 79°
2026-05-08 23:08 59.74188 11.99157 36294 ft 466 kts 79°
2026-05-08 23:09 59.75483 12.11755 36293 ft 466 kts 80°
2026-05-08 23:09 59.76750 12.24353 36290 ft 465 kts 80°
2026-05-08 23:10 59.78007 12.36935 36288 ft 465 kts 80°
2026-05-08 23:10 59.79265 12.49513 36292 ft 464 kts 80°
2026-05-08 23:11 59.80504 12.62017 36294 ft 464 kts 80°
2026-05-08 23:11 59.81733 12.74583 36291 ft 463 kts 80°
2026-05-08 23:12 59.82943 12.87158 36296 ft 463 kts 80°
2026-05-08 23:12 59.84140 12.99714 36300 ft 462 kts 80°
2026-05-08 23:13 59.85326 13.12270 36306 ft 462 kts 81°
2026-05-08 23:13 59.86499 13.24823 36316 ft 461 kts 81°
2026-05-08 23:14 59.87671 13.37370 36321 ft 461 kts 81°
2026-05-08 23:14 59.88821 13.49915 36323 ft 460 kts 81°
2026-05-08 23:15 59.89949 13.62455 36327 ft 459 kts 81°
2026-05-08 23:15 59.91062 13.74971 36327 ft 459 kts 81°
2026-05-08 23:16 59.92167 13.87495 36328 ft 458 kts 81°
2026-05-08 23:16 59.93258 13.99944 36330 ft 458 kts 81°
2026-05-08 23:17 59.94346 14.12455 36333 ft 457 kts 81°
2026-05-08 23:17 59.95417 14.24957 36340 ft 457 kts 81°
2026-05-08 23:18 59.96468 14.37469 36346 ft 457 kts 81°
2026-05-08 23:18 59.97510 14.49964 36348 ft 456 kts 81°
2026-05-08 23:19 59.98540 14.62450 36352 ft 456 kts 81°
2026-05-08 23:19 59.99559 14.74954 36355 ft 456 kts 81°
2026-05-08 23:20 60.00561 14.87448 36357 ft 455 kts 82°
2026-05-08 23:20 60.01543 14.99877 36364 ft 455 kts 82°
2026-05-08 23:21 60.02528 15.12452 36367 ft 455 kts 82°
2026-05-08 23:21 60.03497 15.24868 36370 ft 455 kts 82°
2026-05-08 23:22 60.04459 15.37365 36373 ft 455 kts 82°
2026-05-08 23:22 60.05405 15.49877 36373 ft 455 kts 82°
2026-05-08 23:23 60.06331 15.62388 36373 ft 454 kts 82°
2026-05-08 23:23 60.07251 15.74924 36381 ft 455 kts 82°
2026-05-08 23:24 60.08155 15.87469 36381 ft 455 kts 83°
2026-05-08 23:24 60.09051 16.00005 36380 ft 455 kts 83°
2026-05-08 23:25 60.09938 16.12489 36379 ft 455 kts 83°
2026-05-08 23:25 60.10809 16.25047 36379 ft 455 kts 83°
2026-05-08 23:26 60.11671 16.37623 36380 ft 455 kts 83°
2026-05-08 23:26 60.12520 16.50205 36379 ft 456 kts 83°
2026-05-08 23:27 60.13364 16.62812 36380 ft 455 kts 83°
2026-05-08 23:27 60.14193 16.75409 36377 ft 456 kts 84°
2026-05-08 23:28 60.15008 16.88033 36377 ft 456 kts 84°
2026-05-08 23:28 60.15811 17.00680 36376 ft 457 kts 84°
2026-05-08 23:29 60.16602 17.13332 36377 ft 457 kts 84°
2026-05-08 23:29 60.17388 17.26027 36378 ft 458 kts 84°
2026-05-08 23:30 60.18161 17.38730 36378 ft 458 kts 84°
2026-05-08 23:30 60.18914 17.51347 36380 ft 458 kts 85°
2026-05-08 23:31 60.19660 17.64070 36379 ft 458 kts 85°
2026-05-08 23:31 60.20391 17.76790 36382 ft 458 kts 85°
2026-05-08 23:32 60.21110 17.89526 36382 ft 459 kts 85°
2026-05-08 23:32 60.21827 18.02297 36374 ft 459 kts 85°
2026-05-08 23:33 60.22531 18.15084 36381 ft 460 kts 85°
2026-05-08 23:33 60.23220 18.27864 36378 ft 460 kts 85°
2026-05-08 23:34 60.23899 18.40686 36381 ft 460 kts 86°
2026-05-08 23:34 60.24556 18.53416 36390 ft 461 kts 86°
2026-05-08 23:35 60.25216 18.66246 36384 ft 461 kts 86°
2026-05-08 23:35 60.25859 18.79101 36391 ft 462 kts 86°
2026-05-08 23:36 60.26484 18.91987 36393 ft 462 kts 86°
2026-05-08 23:36 60.27099 19.04877 36389 ft 463 kts 86°
2026-05-08 23:37 60.27714 19.17796 36392 ft 463 kts 87°
2026-05-08 23:37 60.28305 19.30719 36391 ft 464 kts 87°
2026-05-08 23:38 60.28881 19.43668 36395 ft 464 kts 87°
2026-05-08 23:38 60.29449 19.56563 36405 ft 464 kts 87°
2026-05-08 23:39 60.30014 19.69546 36401 ft 465 kts 87°
2026-05-08 23:39 60.30557 19.82539 36410 ft 465 kts 88°
2026-05-08 23:40 60.31084 19.95549 36407 ft 466 kts 88°
2026-05-08 23:40 60.31607 20.08593 36403 ft 466 kts 88°
2026-05-08 23:41 60.32122 20.21645 36402 ft 467 kts 88°
2026-05-08 23:41 60.32619 20.34698 36399 ft 467 kts 88°
2026-05-08 23:42 60.33097 20.47776 36397 ft 467 kts 88°
2026-05-08 23:42 60.33562 20.60866 36401 ft 468 kts 88°
2026-05-08 23:43 60.34023 20.73941 36340 ft 467 kts 88°
2026-05-08 23:43 60.34251 20.80498 35835 ft 468 kts 89°
2026-05-08 23:43 60.34474 20.87044 35217 ft 468 kts 89°
2026-05-08 23:44 60.34695 20.93599 34616 ft 467 kts 89°
2026-05-08 23:44 60.34910 21.00129 33953 ft 467 kts 89°
2026-05-08 23:44 60.35121 21.06665 33261 ft 465 kts 89°
2026-05-08 23:44 60.35327 21.13177 32589 ft 463 kts 89°
2026-05-08 23:45 60.35530 21.19640 31938 ft 461 kts 89°
2026-05-08 23:45 60.35725 21.26031 31289 ft 459 kts 89°
2026-05-08 23:45 60.35918 21.32432 30668 ft 456 kts 89°
2026-05-08 23:45 60.36118 21.38803 29977 ft 455 kts 89°
2026-05-08 23:46 60.36353 21.45163 29265 ft 452 kts 88°
2026-05-08 23:46 60.36611 21.51488 28568 ft 450 kts 88°
2026-05-08 23:46 60.36874 21.57778 27892 ft 447 kts 87°
2026-05-08 23:46 60.37132 21.64011 27215 ft 445 kts 87°
2026-05-08 23:47 60.37381 21.70226 26583 ft 442 kts 87°
2026-05-08 23:47 60.37619 21.76402 25950 ft 439 kts 87°
2026-05-08 23:47 60.37846 21.82536 25327 ft 436 kts 87°
2026-05-08 23:47 60.38065 21.88613 24722 ft 432 kts 87°
2026-05-08 23:48 60.38279 21.94659 24132 ft 429 kts 87°
2026-05-08 23:48 60.38490 22.00641 23465 ft 426 kts 87°
2026-05-08 23:48 60.38699 22.06602 22770 ft 423 kts 87°
2026-05-08 23:48 60.38901 22.12514 22090 ft 421 kts 87°
2026-05-08 23:49 60.39099 22.18405 21438 ft 418 kts 87°
2026-05-08 23:49 60.39296 22.24262 20794 ft 416 kts 86°
2026-05-08 23:49 60.39491 22.30066 20165 ft 413 kts 86°
2026-05-08 23:49 60.39685 22.35855 19548 ft 411 kts 86°
2026-05-08 23:50 60.39875 22.41592 18942 ft 409 kts 86°
2026-05-08 23:50 60.40060 22.47316 18296 ft 406 kts 86°
2026-05-08 23:50 60.40238 22.53009 17624 ft 404 kts 86°
2026-05-08 23:50 60.40412 22.58655 16957 ft 402 kts 86°
2026-05-08 23:51 60.40583 22.64292 16307 ft 400 kts 86°
2026-05-08 23:51 60.40750 22.69824 15680 ft 398 kts 86°
2026-05-08 23:51 60.40918 22.75381 15057 ft 395 kts 86°
2026-05-08 23:51 60.41085 22.80924 14446 ft 393 kts 87°
2026-05-08 23:52 60.41248 22.86434 13793 ft 391 kts 87°
2026-05-08 23:52 60.41407 22.91892 13120 ft 388 kts 87°
2026-05-08 23:52 60.41561 22.97330 12459 ft 385 kts 87°
2026-05-08 23:52 60.41711 23.02725 11816 ft 382 kts 86°
2026-05-08 23:53 60.41858 23.08063 11183 ft 380 kts 86°
2026-05-08 23:53 60.42008 23.13553 10785 ft 394 kts 86°
2026-05-08 23:53 60.42155 23.18950 10682 ft 374 kts 86°
2026-05-08 23:53 60.42293 23.24061 10706 ft 352 kts 86°
2026-05-08 23:54 60.42419 23.28860 10709 ft 333 kts 86°
2026-05-08 23:54 60.42534 23.33421 10710 ft 316 kts 87°
2026-05-08 23:54 60.42642 23.37751 10705 ft 300 kts 87°
2026-05-08 23:55 60.42843 23.45816 10623 ft 281 kts 87°
2026-05-08 23:55 60.42939 23.49738 10377 ft 277 kts 87°
2026-05-08 23:55 60.43032 23.53608 10240 ft 276 kts 87°
2026-05-08 23:55 60.43125 23.57506 10106 ft 281 kts 87°
2026-05-08 23:56 60.43217 23.61393 9963 ft 277 kts 87°
2026-05-08 23:56 60.43278 23.64020 9715 ft 277 kts 87°
2026-05-08 23:56 60.43396 23.69134 9433 ft 270 kts 87°
2026-05-08 23:56 60.43455 23.71700 9433 ft 270 kts 87°
2026-05-08 23:57 60.43538 23.75500 9431 ft 271 kts 87°
2026-05-08 23:57 60.43648 23.80546 9432 ft 271 kts 87°
2026-05-08 23:57 60.43705 23.83133 9434 ft 271 kts 87°
2026-05-08 23:57 60.43789 23.86941 9434 ft 271 kts 87°
2026-05-08 23:58 60.43927 23.90763 9259 ft 272 kts 84°
2026-05-08 23:58 60.44137 23.94560 8916 ft 270 kts 83°
2026-05-08 23:58 60.44370 23.98303 8579 ft 267 kts 82°
2026-05-08 23:58 60.44605 24.02019 8311 ft 263 kts 82°
2026-05-08 23:59 60.44834 24.05702 7961 ft 266 kts 83°
2026-05-08 23:59 60.45057 24.09410 7686 ft 261 kts 83°
2026-05-08 23:59 60.45262 24.12939 7529 ft 251 kts 83°
2026-05-08 23:59 60.45463 24.16468 7147 ft 252 kts 83°
2026-05-09 00:00 60.45664 24.19999 6766 ft 253 kts 83°
2026-05-09 00:00 60.45862 24.23489 6291 ft 246 kts 83°
2026-05-09 00:00 60.46055 24.26907 5770 ft 243 kts 84°
2026-05-09 00:00 60.46246 24.30280 5238 ft 239 kts 84°
2026-05-09 00:01 60.46430 24.33615 4707 ft 236 kts 85°
2026-05-09 00:01 60.46609 24.36900 4188 ft 234 kts 84°
2026-05-09 00:01 60.46787 24.40152 3668 ft 231 kts 85°
2026-05-09 00:01 60.46964 24.43376 3145 ft 228 kts 85°
2026-05-09 00:02 60.47144 24.46601 2623 ft 233 kts 86°
2026-05-09 00:02 60.47330 24.49957 2123 ft 244 kts 85°
2026-05-09 00:02 60.47514 24.53285 2003 ft 231 kts 84°
2026-05-09 00:02 60.47689 24.56425 2009 ft 218 kts 85°
2026-05-09 00:03 60.47853 24.59396 2012 ft 206 kts 85°
2026-05-09 00:03 60.48005 24.62204 2013 ft 195 kts 85°
2026-05-09 00:03 60.48151 24.64873 2021 ft 186 kts 85°
2026-05-09 00:03 60.48287 24.67397 2024 ft 173 kts 85°
2026-05-09 00:04 60.48416 24.69782 2010 ft 167 kts 85°
2026-05-09 00:04 60.48541 24.72115 2013 ft 166 kts 85°
2026-05-09 00:04 60.48665 24.74421 2016 ft 165 kts 85°
2026-05-09 00:04 60.48773 24.76725 2010 ft 163 kts 91°
2026-05-09 00:05 60.48554 24.78962 2022 ft 163 kts 114°
2026-05-09 00:05 60.47920 24.80827 2012 ft 162 kts 136°
2026-05-09 00:05 60.46970 24.82062 2021 ft 163 kts 151°
2026-05-09 00:05 60.45961 24.83106 2012 ft 163 kts 152°
2026-05-09 00:06 60.44945 24.84158 2019 ft 164 kts 152°
2026-05-09 00:06 60.43931 24.85208 2009 ft 163 kts 152°
2026-05-09 00:06 60.42919 24.86254 2022 ft 163 kts 151°
2026-05-09 00:06 60.41951 24.87253 2013 ft 147 kts 151°
2026-05-09 00:07 60.41077 24.88157 1953 ft 142 kts 152°
2026-05-09 00:07 60.40193 24.89070 1786 ft 140 kts 152°
2026-05-09 00:07 60.39333 24.89957 1615 ft 141 kts 152°
2026-05-09 00:07 60.38463 24.90853 1425 ft 140 kts 152°
2026-05-09 00:08 60.37604 24.91740 1249 ft 141 kts 151°
2026-05-09 00:08 60.36744 24.92625 1046 ft 141 kts 152°
2026-05-09 00:08 60.35867 24.93527 840 ft 142 kts 152°
2026-05-09 00:08 60.34989 24.94430 656 ft 142 kts 152°
2026-05-09 00:09 60.34107 24.95337 458 ft 142 kts 152°
2026-05-09 00:09 60.33225 24.96240 270 ft 142 kts 152°
2026-05-09 00:09 60.32351 24.97130 169 ft 137 kts 152°
2026-05-09 00:09 60.31763 24.97748 161 ft 29 kts 154°
2026-05-09 00:10 60.31602 24.97905 159 ft 25 kts 153°
2026-05-09 00:10 60.31487 24.97997 158 ft 11 kts 185°
2026-05-09 00:10 60.31431 24.97930 159 ft 8 kts 238°
2026-05-09 00:10 60.31427 24.97919 159 ft 0 kts 239°
2026-05-09 00:11 60.31427 24.97918 159 ft 0 kts 239°
2026-05-09 00:11 60.31385 24.97756 160 ft 24 kts 245°
2026-05-09 00:12 60.31444 24.97587 160 ft 0 kts 346°
2026-05-09 00:12 60.31445 24.97587 160 ft 0 kts 346°
2026-05-09 00:12 60.31450 24.97584 160 ft 4 kts 342°
2026-05-09 00:12 60.31506 24.97530 160 ft 20 kts 328°
2026-05-09 00:13 60.31586 24.97437 161 ft 11 kts 333°
2026-05-09 00:13 60.31619 24.97392 161 ft 2 kts 280°
2026-05-09 00:13 60.31611 24.97366 161 ft 2 kts 244°
2026-05-09 00:13 60.31611 24.97352 161 ft 3 kts 261°
2026-05-09 00:14 60.31606 24.97301 161 ft 1 kts 253°
2026-05-09 00:14 60.31602 24.97290 161 ft 1 kts 242°
2026-05-09 00:14 60.31599 24.97279 161 ft 0 kts 242°